ON, Ontario

11:54 AM CST on February 21, 2017 (GMT -0600)
Kenora

Weather History for CYQK - September, 2013

Change the Weather History Date:

Wednesday, September 11, 2013

  Actual Average Record
Temperature  
Mean Temperature 62 °F -  
Max Temperature 68 °F 57 °F 80 °F (2005)
Min Temperature 55 °F 41 °F 37 °F (2007)
Degree Days  
Heating Degree Days 3    
Growing Degree Days 12 (Base 50)    
Moisture  
Dew Point 55 °F    
Average Humidity 84    
Maximum Humidity 100    
Minimum Humidity 55    
Precipitation  
Precipitation 0.20 in 0.08 in - ()
Sea Level Pressure  
Sea Level Pressure 29.99 in    
Wind  
Wind Speed 5 mph ()    
Max Wind Speed 21 mph    
Max Gust Speed 29 mph    
Visibility 13.5 miles    
Events Rain , Hail , Thunderstorm    
Averages and records for this station are not official NWS values.
T = Trace of Precipitation, MM = Missing Value Source: Averaged Metar Reports

Daily Weather History Graph

Daily Weather History Graph

Search for Another Location

Airport or City:

Trip Planner

Search our weather history database for the weather conditions in past years. The results will help you decide how hot, cold, wet, or windy it might be!

Date:

Astronomy

Sep. 11, 2013 Rise Set
Actual Time 6:48 AM CDT 7:38 PM CDT
Civil Twilight 6:15 AM CDT 8:11 PM CDT
Nautical Twilight 5:36 AM CDT 8:50 PM CDT
Astronomical Twilight 4:54 AM CDT 9:31 PM CDT
Moon 1:54 PM CDT (9/11) 10:58 PM CDT (9/11)
Length of Visible Light 13h 56m
Length of Day
12h 50m
Waxing Crescent, 39% of the Moon is Illuminated
Sep 11
Waxing Crescent
Sep 12
First Quarter
Sep 19
Full
Sep 26
Last Quarter
Oct 4
New

Hourly Weather History & Observations

Time (CDT) Temp. Dew Point Humidity Pressure Visibility Wind Dir Wind Speed Gust Speed Precip Events Conditions
12:00 AM 57.2 °F 55.4 °F 94% 29.89 in 8.0 mi East 3.5 mph - N/A Rain , Thunderstorm Light Thunderstorms and Rain
1:00 AM 57 °F 56 °F 97% 29.87 in 12 mi Calm Calm - - Thunderstorm Light Thunderstorm
1:00 AM 57.2 °F 55.4 °F 94% 29.86 in 12.0 mi Calm Calm - N/A Rain Light Rain Showers
2:00 AM 57.2 °F 55.4 °F 94% 29.88 in 12.0 mi Calm Calm - N/A   Overcast
3:00 AM 57.2 °F 55.4 °F 94% 29.89 in 12.0 mi WSW 3.5 mph - N/A   Overcast
4:00 AM 59.0 °F 57.2 °F 94% 29.89 in 12.0 mi West 6.9 mph - N/A   Overcast
5:00 AM 57.2 °F 57.2 °F 100% 29.91 in 10.0 mi NW 8.1 mph - N/A   Overcast
6:00 AM 57.2 °F 57.2 °F 100% 29.93 in 12.0 mi NW 8.1 mph - N/A   Overcast
6:17 AM 57.2 °F 57.2 °F 100% 29.93 in 10.0 mi NW 9.2 mph - N/A   Overcast
7:00 AM 57 °F 57 °F 99% 29.95 in 12 mi NW 5.8 mph - -   Partly Cloudy
7:00 AM 57.2 °F 57.2 °F 100% 29.95 in 12.0 mi NW 5.8 mph - N/A   Mostly Cloudy
8:00 AM 57.2 °F 57.2 °F 100% 29.98 in 12.0 mi WNW 6.9 mph - N/A   Mostly Cloudy
8:39 AM 59.0 °F 57.2 °F 94% 29.98 in 12.0 mi WNW 8.1 mph - N/A   Mostly Cloudy
9:00 AM 59.0 °F 57.2 °F 94% 29.98 in 15.0 mi NW 5.8 mph - N/A   Mostly Cloudy
10:00 AM 62.6 °F 57.2 °F 82% 29.99 in 15.0 mi West 6.9 mph - N/A   Mostly Cloudy
11:00 AM 64.4 °F 55.4 °F 73% 29.99 in 15.0 mi West 5.8 mph - N/A   Mostly Cloudy
12:00 PM 66.2 °F 55.4 °F 68% 30.00 in 15.0 mi NW 3.5 mph - N/A   Mostly Cloudy
1:00 PM 67 °F 54 °F 55% 30.00 in 15 mi Calm Calm - -   Scattered Clouds
1:00 PM 68.0 °F 55.4 °F 64% 30.00 in 15.0 mi NW 5.8 mph - N/A   Mostly Cloudy
2:00 PM 68.0 °F 55.4 °F 64% 30.00 in 15.0 mi NW 5.8 mph - N/A   Mostly Cloudy
2:16 PM - - N/A% - 15.0 mi NW 5.8 mph - N/A Rain Light Rain Showers
2:18 PM - - N/A% - 15.0 mi NW 11.5 mph - N/A Rain , Thunderstorm Light Thunderstorms and Rain
2:24 PM - - N/A% - 6.0 mi West 8.1 mph - N/A Rain , Hail , Thunderstorm Light Thunderstorms with Hail
2:31 PM - - N/A% - 15.0 mi West 6.9 mph - N/A Rain , Thunderstorm Light Thunderstorms and Rain
2:49 PM - - N/A% - 15.0 mi NW 8.1 mph - N/A   Overcast
3:00 PM 62.6 °F 51.8 °F 68% 30.03 in 15.0 mi NNW 20.7 mph 28.8 mph N/A   Overcast
3:17 PM - - N/A% - 15.0 mi North 15.0 mph 26.5 mph N/A Rain , Thunderstorm Light Thunderstorms and Rain
3:41 PM - - N/A% - 15.0 mi North 6.9 mph - N/A Rain Light Rain Showers
4:00 PM 57.2 °F 51.8 °F 82% 30.06 in 15.0 mi NNE 4.6 mph - N/A   Mostly Cloudy
5:00 PM 60.8 °F 51.8 °F 72% 30.06 in 15.0 mi North 4.6 mph - N/A   Scattered Clouds
6:00 PM 62.6 °F 50.0 °F 63% 30.08 in 15.0 mi North 11.5 mph - N/A   Partly Cloudy
7:00 PM 59 °F 51 °F 66% 30.09 in 15 mi NNW 6.9 mph - -   Partly Cloudy
7:00 PM 59.0 °F 50.0 °F 72% 30.09 in 15.0 mi NNW 6.9 mph - N/A   Scattered Clouds
8:00 PM 57.2 °F 51.8 °F 82% 30.10 in 15.0 mi NW 8.1 mph - N/A   Partly Cloudy
9:00 PM 57.2 °F 53.6 °F 88% 30.12 in 15.0 mi NW 8.1 mph - N/A   Scattered Clouds
10:00 PM 57.2 °F 51.8 °F 82% 30.14 in 15.0 mi NNW 9.2 mph - N/A   Scattered Clouds
11:00 PM 55.4 °F 50.0 °F 82% 30.15 in 15.0 mi North 6.9 mph - N/A   Scattered Clouds